Location: Poughquag
(41.6090°N, 73.6820°W)
Time: 09:11:16
(UTC-05:00)

Vanguard 1 - Pass Details

Date: 04 December 2023
Orbit: 653 x 3826 km, 34.3° (Epoch: 25 February)

Event Time Altitude Azimuth Distance (km) Brightness Sun altitude
Rises 22:54:34 0° 280° (W) 7,383 14.7 -68.0°
Reaches altitude 10° 22:59:21 10° 277° (W) 6,608 14.3 -68.5°
Enters shadow 23:08:03 30° 264° (W) 5,355 13.6 -69.2°
Maximum altitude 23:20:58 52° 209° (SSW) 4,314 - -70.1°
Drops below altitude 10° 23:39:51 10° 140° (SE) 5,832 - -70.7°
Sets 23:43:48 0° 135° (SE) 6,503 - -70.7°
